sat.trackr.live / text

‹ back to catalog

STARLINK-5356

NORAD 56418 · 2023-061AW

PAYLOAD ACTIVE UNKNOWN

§ Identity

Operator
Country
US
Launch date
2023-05-04
Launch site
AFETR
Launch vehicle
Mass (kg)
RCS (m²)

Purposes: comms

External: N2YO · Heavens-Above · Gunter

§ Orbital elements

Epoch: 2026-05-24T22:39:53.616384Z

Period
94.27 min
Inclination
43.0035°
Eccentricity
0.0001122
Mean motion
15.27548263 rev/d
Perigee alt
482.4 km
Apogee alt
483.9 km
Semi-major
6,861.3 km
B*
5.2737e-4
RAAN
108.7526°
Arg perigee
263.1490°
Mean anomaly
96.9234°
Rev number
16,862

§ Raw data

STARLINK-53561 56418U 23061AW  26144.94437056  .00014264  00000+0  52737-3 0  99942 56418  43.0035 108.7526 0001122 263.1490  96.9234 15.27548263168620

JSON: /api/v1/satellites/56418 · /tle

For live sub-satellite position, see the globe view (requires WebGL).

§ Visibility from observer

Set your observer location to see the next 7 days of passes ≥ 10°. The values pass through the URL so the page stays shareable.

No JS? Fill the form by hand. The geolocation button needs JavaScript.